sat.trackr.live / text

‹ back to catalog

KUIPER-00116

NORAD 65153 · 2025-171X

PAYLOAD ACTIVE UNKNOWN

§ Identity

Operator
Country
US
Launch date
2025-08-11
Launch site
AFETR
Launch vehicle
Mass (kg)
RCS (m²)

External: N2YO · Heavens-Above · Gunter

§ Orbital elements

Epoch: 2026-05-25T03:19:51.106080Z

Period
97.30 min
Inclination
51.8982°
Eccentricity
0.0000375
Mean motion
14.79932962 rev/d
Perigee alt
629.3 km
Apogee alt
629.8 km
Semi-major
7,007.7 km
B*
4.0929e-6
RAAN
195.0728°
Arg perigee
85.1569°
Mean anomaly
274.9436°
Rev number
4,399

§ Raw data

KUIPER-001161 65153U 25171X   26145.13878595 -.00000190  00000+0  40929-5 0  99992 65153  51.8982 195.0728 0000375  85.1569 274.9436 14.79932962 43998

JSON: /api/v1/satellites/65153 · /tle

For live sub-satellite position, see the globe view (requires WebGL).

§ Visibility from observer

Set your observer location to see the next 7 days of passes ≥ 10°. The values pass through the URL so the page stays shareable.

No JS? Fill the form by hand. The geolocation button needs JavaScript.